Find Kosmos-972

NORAD ID: 10539 Int'l Des: 1977-123 Owner: YUZH Country: SU operational
LEO

Live-Position

3D-Globus wird geladen...

Über Kosmos-972

Beschreibung wird geladen...

Nächste Überflüge

Passes for default location (London). Set your location on the main map for personalized predictions.

Höhenverlauf

Loading altitude history...

Zweizeiliger Elementsatz

1 10539U 77123A 26120.26626111 .00000063 00000-0 44121-4 0 9999
2 10539 75.8345 178.2187 0302368 303.1221 54.1227 13.89159130449390
Epoch: 30. Apr. 2026 • Age: 7 hours

Aktueller Status

Höhe 815.8 km
Geschwindigkeit 7.51 km/s
Subsatellitenpunkt 1.50°N, 119.99°E
Startdatum 27. Dez. 1977
Alter 48.3 years
Typ other

Technische Details

Klassifizierung Payload
Masse 1700.00 kg
Trockenmasse 1700.00 kg
Gesamtmasse 1700.00 kg
Länge 3.20 m
Durchmesser 1.30 m
Spannweite 3.20 m
Form Cyl
Hersteller YUZH
Bus-Typ GVM
Phasenstatus In Orbit
Besitzer/Staat YUZH/SU

Most Searched